• In Latvia
  • List of Countries
  • For 7 days
  • Water Temperature
  • Satellite Maps
  • Weather Map
  • Weather Widgets
  • user-avatar
    Login

    Hourly Weather Lubango

    Today, 26 May, Saturday

    Time Temperature Precipitation Wind Pressure Humidity
    00:00 +13°C° 0 mm 2 mps 608 mmHg 51%
    01:00 +13°C° 0 mm 2 mps 607 mmHg 51%
    02:00 +12°C° 0 mm 2 mps 607 mmHg 52%
    03:00 +12°C° 0 mm 2 mps 607 mmHg 53%
    04:00 +12°C° 0 mm 2 mps 607 mmHg 54%
    05:00 +12°C° 0 mm 2 mps 607 mmHg 56%
    06:00 +12°C° 0 mm 2 mps 608 mmHg 58%
    07:00 +12°C° 0 mm 2 mps 608 mmHg 59%
    08:00 +14°C° 0 mm 3 mps 609 mmHg 50%
    09:00 +19°C° 0 mm 4 mps 611 mmHg 41%
    10:00 +22°C° 0 mm 4 mps 612 mmHg 31%
    11:00 +23°C° 0 mm 4 mps 612 mmHg 29%
    12:00 +25°C° 0 mm 3 mps 612 mmHg 26%
    13:00 +26°C° 0 mm 3 mps 612 mmHg 23%
    14:00 +26°C° 0 mm 3 mps 612 mmHg 23%
    15:00 +26°C° 0 mm 3 mps 611 mmHg 24%
    16:00 +25°C° 0 mm 3 mps 611 mmHg 24%
    17:00 +21°C° 0 mm 2 mps 610 mmHg 31%
    18:00 +18°C° 0 mm 2 mps 609 mmHg 38%
    19:00 +15°C° 0 mm 1 mps 608 mmHg 45%
    20:00 +15°C° 0 mm 1 mps 609 mmHg 48%
    21:00 +14°C° 0 mm 1 mps 609 mmHg 50%
    22:00 +13°C° 0 mm 1 mps 609 mmHg 53%
    23:00 +13°C° 0 mm 1 mps 609 mmHg 53%

    Tomorrow, 27 May, Sunday

    Time Temperature Precipitation Wind Pressure Humidity
    00:00 +13°C° 0 mm 1 mps 609 mmHg 54%
    01:00 +12°C° 0 mm 2 mps 609 mmHg 55%
    02:00 +12°C° 0 mm 2 mps 609 mmHg 55%
    03:00 +12°C° 0 mm 2 mps 608 mmHg 55%
    04:00 +12°C° 0 mm 2 mps 608 mmHg 55%
    05:00 +12°C° 0 mm 2 mps 609 mmHg 54%
    06:00 +12°C° 0 mm 2 mps 609 mmHg 54%
    07:00 +12°C° 0 mm 2 mps 609 mmHg 53%
    08:00 +16°C° 0 mm 3 mps 611 mmHg 46%
    09:00 +19°C° 0 mm 4 mps 612 mmHg 38%
    10:00 +22°C° 0 mm 4 mps 613 mmHg 30%
    11:00 +23°C° 0 mm 4 mps 613 mmHg 28%
    12:00 +25°C° 0 mm 4 mps 613 mmHg 25%
    13:00 +26°C° 0 mm 3 mps 613 mmHg 23%
    14:00 +26°C° 0 mm 3 mps 613 mmHg 23%
    15:00 +26°C° 0 mm 3 mps 612 mmHg 23%
    16:00 +26°C° 0 mm 3 mps 612 mmHg 23%
    17:00 +23°C° 0 mm 2 mps 611 mmHg 29%
    18:00 +18°C° 0 mm 2 mps 610 mmHg 36%
    19:00 +15°C° 0 mm 1 mps 609 mmHg 42%
    20:00 +15°C° 0 mm 1 mps 610 mmHg 44%
    21:00 +14°C° 0 mm 1 mps 610 mmHg 45%
    22:00 +13°C° 0 mm 1 mps 610 mmHg 47%
    23:00 +13°C° 0 mm 1 mps 610 mmHg 47%

    Day after tomorrow, 28 May, Monday

    Time Temperature Precipitation Wind Pressure Humidity
    00:00 +12°C° 0 mm 1 mps 610 mmHg 48%
    01:00 +12°C° 0 mm 1 mps 609 mmHg 48%
    02:00 +12°C° 0 mm 1 mps 609 mmHg 47%
    03:00 +12°C° 0 mm 1 mps 609 mmHg 47%
    04:00 +12°C° 0 mm 1 mps 609 mmHg 47%
    05:00 +12°C° 0 mm 1 mps 609 mmHg 48%
    06:00 +12°C° 0 mm 1 mps 610 mmHg 48%
    07:00 +12°C° 0 mm 2 mps 610 mmHg 49%
    08:00 +16°C° 0 mm 2 mps 612 mmHg 43%
    09:00 +19°C° 0 mm 3 mps 613 mmHg 37%
    10:00 +22°C° 0 mm 3 mps 614 mmHg 31%
    11:00 +25°C° 0 mm 3 mps 614 mmHg 29%
    12:00 +26°C° 0 mm 3 mps 614 mmHg 26%
    13:00 +27°C° 0 mm 2 mps 614 mmHg 24%
    14:00 +27°C° 0 mm 2 mps 613 mmHg 24%
    15:00 +26°C° 0 mm 2 mps 613 mmHg 24%
    16:00 +26°C° 0 mm 1 mps 613 mmHg 24%
    17:00 +23°C° 0 mm 1 mps 612 mmHg 30%
    18:00 +20°C° 0 mm 1 mps 611 mmHg 37%
    19:00 +16°C° 0 mm 1 mps 610 mmHg 44%
    20:00 +15°C° 0 mm 1 mps 610 mmHg 46%
    21:00 +15°C° 0 mm 1 mps 610 mmHg 47%
    22:00 +14°C° 0 mm 1 mps 610 mmHg 49%
    23:00 +14°C° 0 mm 1 mps 610 mmHg 49%

    29 May, Tuesday

    Time Temperature Precipitation Wind Pressure Humidity
    00:00 +13°C° 0 mm 1 mps 610 mmHg 49%
    01:00 +13°C° 0 mm 1 mps 610 mmHg 50%
    02:00 +13°C° 0 mm 1 mps 609 mmHg 49%
    03:00 +13°C° 0 mm 1 mps 609 mmHg 49%
    04:00 +13°C° 0 mm 1 mps 609 mmHg 49%
    05:00 +13°C° 0 mm 1 mps 609 mmHg 48%
    06:00 +13°C° 0 mm 1 mps 610 mmHg 47%
    07:00 +13°C° 0 mm 1 mps 610 mmHg 46%
    08:00 +17°C° 0 mm 2 mps 611 mmHg 40%
    09:00 +20°C° 0 mm 2 mps 613 mmHg 33%
    10:00 +24°C° 0 mm 2 mps 614 mmHg 26%
    11:00 +26°C° 0 mm 2 mps 614 mmHg 24%
    12:00 +27°C° 0 mm 2 mps 614 mmHg 23%
    13:00 +28°C° 0 mm 1 mps 613 mmHg 21%
    14:00 +28°C° 0 mm 1 mps 613 mmHg 21%
    15:00 +27°C° 0 mm 1 mps 612 mmHg 21%
    16:00 +27°C° 0 mm 1 mps 612 mmHg 22%
    17:00 +24°C° 0 mm 1 mps 611 mmHg 28%
    18:00 +20°C° 0 mm 1 mps 610 mmHg 35%
    19:00 +16°C° 0 mm 1 mps 609 mmHg 41%
    20:00 +15°C° 0 mm 1 mps 609 mmHg 44%
    21:00 +15°C° 0 mm 1 mps 609 mmHg 46%
    22:00 +14°C° 0 mm 1 mps 609 mmHg 49%
    23:00 +14°C° 0 mm 1 mps 609 mmHg 49%

    30 May, Wednesday

    Time Temperature Precipitation Wind Pressure Humidity
    00:00 +13°C° 0 mm 1 mps 609 mmHg 49%
    01:00 +13°C° 0 mm 1 mps 608 mmHg 49%
    02:00 +13°C° 0 mm 1 mps 608 mmHg 49%
    03:00 +13°C° 0 mm 1 mps 608 mmHg 48%
    04:00 +13°C° 0 mm 1 mps 608 mmHg 47%
    05:00 +13°C° 0 mm 1 mps 608 mmHg 47%
    06:00 +13°C° 0 mm 1 mps 609 mmHg 46%
    07:00 +14°C° 0 mm 1 mps 609 mmHg 45%
    08:00 +18°C° 0 mm 1 mps 611 mmHg 38%
    09:00 +22°C° 0 mm 1 mps 612 mmHg 32%
    10:00 +25°C° 0 mm 2 mps 614 mmHg 26%
    11:00 +26°C° 0 mm 2 mps 613 mmHg 24%
    12:00 +27°C° 0 mm 2 mps 613 mmHg 23%
    13:00 +28°C° 0 mm 2 mps 613 mmHg 21%
    14:00 +28°C° 0 mm 2 mps 613 mmHg 22%
    15:00 +27°C° 0 mm 2 mps 612 mmHg 23%
    16:00 +27°C° 0 mm 2 mps 612 mmHg 24%
    17:00 +23°C° 0 mm 2 mps 611 mmHg 32%
    18:00 +20°C° 0 mm 1 mps 610 mmHg 41%
    19:00 +16°C° 0 mm 1 mps 609 mmHg 50%
    20:00 +15°C° 0 mm 1 mps 609 mmHg 52%
    21:00 +14°C° 0 mm 1 mps 609 mmHg 54%
    22:00 +14°C° 0 mm 1 mps 609 mmHg 57%
    23:00 +14°C° 0 mm 1 mps 609 mmHg 56%

    31 May, Thursday

    Time Temperature Precipitation Wind Pressure Humidity
    00:00 +13°C° 0 mm 1 mps 609 mmHg 55%
    01:00 +13°C° 0 mm 1 mps 608 mmHg 55%
    02:00 +13°C° 0 mm 1 mps 608 mmHg 54%
    03:00 +13°C° 0 mm 1 mps 608 mmHg 53%
    04:00 +13°C° 0 mm 1 mps 608 mmHg 52%
    05:00 +13°C° 0 mm 1 mps 608 mmHg 50%
    06:00 +13°C° 0 mm 1 mps 609 mmHg 49%
    07:00 +14°C° 0 mm 1 mps 609 mmHg 48%
    08:00 +18°C° 0 mm 1 mps 611 mmHg 40%
    09:00 +22°C° 0 mm 1 mps 612 mmHg 33%
    10:00 +26°C° 0 mm 1 mps 614 mmHg 25%
    11:00 +27°C° 0 mm 1 mps 614 mmHg 23%
    12:00 +28°C° 0 mm 1 mps 614 mmHg 21%
    13:00 +29°C° 0 mm 1 mps 613 mmHg 19%
    14:00 +28°C° 0 mm 2 mps 613 mmHg 20%
    15:00 +28°C° 0 mm 2 mps 612 mmHg 20%
    16:00 +28°C° 0 mm 2 mps 612 mmHg 21%
    17:00 +24°C° 0 mm 2 mps 611 mmHg 30%
    18:00 +21°C° 0 mm 1 mps 610 mmHg 38%
    19:00 +16°C° 0 mm 1 mps 609 mmHg 47%
    20:00 +16°C° 0 mm 1 mps 609 mmHg 49%
    21:00 +15°C° 0 mm 1 mps 609 mmHg 51%
    22:00 +14°C° 0 mm 1 mps 609 mmHg 53%
    23:00 +14°C° 0 mm 1 mps 609 mmHg 52%
    Show more